Location: Mount Tamalpais State Park
(37.9108°N, 122.6128°W)
Time: 11:05:31
(UTC-07:00)

Cosmos 1814 Rocket - Visible Passes

Search period start: 23 July 2014 00:00
Search period end: 02 August 2014 00:00
Orbit: 745 x 789 km, 74.1° (Epoch: 23 July)

Date Brightness Start Highest point End Pass type
(mag) Time Alt. Az. Time Alt. Az. Time Alt. Az.
23 Jul 4.0 21:17:16 10° S 21:22:18 59° ESE 21:27:25 10° NNE visible
23 Jul 6.8 23:01:35 10° W 23:04:46 16° WNW 23:07:59 10° NNW visible
24 Jul 6.1 22:22:50 10° WSW 22:27:11 27° WNW 22:31:36 10° N visible
25 Jul 5.1 21:44:47 10° SW 21:49:44 46° WNW 21:54:45 10° N visible
26 Jul 4.1 21:07:14 10° SSW 21:12:23 82° WNW 21:17:38 10° NNE visible
27 Jul 6.9 22:14:14 10° W 22:17:35 17° WNW 22:20:58 10° NNW visible
28 Jul 7.8 05:21:09 10° NE 05:21:59 10° NE 05:22:50 10° ENE visible
28 Jul 6.2 21:35:35 10° WSW 21:40:01 28° WNW 21:44:31 10° N visible
29 Jul 5.2 20:57:35 10° SW 21:02:34 49° WNW 21:07:39 10° N visible
30 Jul 7.6 22:07:07 10° WNW 22:08:06 11° NW 22:09:05 10° NW visible
31 Jul 7.3 05:09:06 10° NNE 05:12:31 17° ENE 05:15:56 10° E visible
31 Jul 7.1 21:26:54 10° WSW 21:30:24 18° WNW 21:33:57 10° NNW visible
01 Aug 6.3 20:48:19 10° SW 20:52:51 30° WNW 20:57:26 10° N visible
